Flag Weather past 2 weeks in Calgary, Alberta, Canada

Now
27 °F

Light snow. Low clouds.


Feels Like: 18 °F
Forecast: 21 / 28 °F
Wind: 8 mph from Southeast

Location: Calgary International

Current Time: Nov 27, 2014 at 2:49:38 AM

Latest Report: Nov 27, 2014 at 2:00 AM


Visibility: 3 mi

Pressure: 30.01 "Hg

Humidity: 93%

Dew point: 25 °F

Location of CalgaryLocation

Historic Weather in Calgary — Graph

°F

Calgary temperature yesterday

Maximum temperature yesterday: 28 °F (at 2:00 PM)
Minimum temperature yesterday: 21 °F (at 5:00 AM)
Average temperature yesterday: 25 °F

Past Weeks' High & Low Weather Summary

 TemperatureHumidityPressure
High48 °F (Nov 20, 2:00 PM)100% (Nov 26, 10:00 AM)30.88 "Hg (Nov 26, 10:00 AM)
Low-4 °F (Nov 12, 3:00 AM)34% (Nov 15, 7:00 PM)29.10 "Hg (Nov 22, 7:00 AM)
Average23 °F71%30.15 "Hg
* Reported Nov 12 1:00 AM — Nov 27 1:00 AM, Calgary, Weather by CustomWeather, © 2014

Note: Actual official high and low records may vary slightly from our data, if they occured in-between our weather recording intervals... More about our weather records

Advertising

Calgary weather history for previous 24 hours

 ConditionsComfort  
Time TempWeatherWind HumidityBarometerVisibility
1:00 AM
Nov 27
27 °FLight snow. Overcast.8 mph93%30.04 "Hg2 mi
12:00 AM27 °FLight snow. Ice fog.7 mph93%30.07 "Hg1 mi
11:51 PM
Nov 26
27 °FLight snow. Low clouds.7 mph93%30.08 "Hg2 mi
11:00 PM27 °FLight snow. Low clouds.8 mph93%30.09 "Hg1 mi
10:00 PM27 °FLight snow. Ice fog.8 mph93%30.11 "Hg2 mi
9:00 PM27 °FLight snow. Ice fog.8 mph93%30.14 "Hg2 mi
8:00 PM27 °FLight snow. Low clouds.8 mph93%30.16 "Hg2 mi
7:00 PM27 °FLight snow. Ice fog.8 mph93%30.18 "Hg2 mi
6:00 PM27 °FLight snow. Ice fog.7 mph93%30.21 "Hg2 mi
5:00 PM27 °FLight snow. Ice fog.8 mph93%30.22 "Hg2 mi
4:00 PM28 °FIce fog.5 mph86%30.22 "Hg4 mi
3:00 PM28 °FIce fog.5 mph86%30.23 "Hg4 mi
2:00 PM28 °FIce fog.8 mph80%30.24 "Hg4 mi
1:00 PM27 °FIce fog.9 mph86%30.25 "Hg3 mi
12:00 PM27 °FIce fog.8 mph86%30.25 "Hg3 mi
11:00 AM25 °FIce fog.9 mph93%30.27 "Hg1 mi
10:00 AM23 °FIce fog.8 mph100%30.28 "Hg1 mi
9:00 AM23 °FIce fog.8 mph93%30.28 "Hg1 mi
8:00 AM23 °FIce fog.8 mph93%30.27 "Hg1 mi
7:00 AM23 °FIce fog.6 mph93%30.26 "Hg1 mi
6:02 AM23 °FIce fog.5 mph93%30.27 "Hg1 mi
5:00 AM21 °FIce fog.6 mph93%30.27 "Hg2 mi
4:00 AM23 °FIce fog.3 mph93%30.27 "Hg3 mi
3:00 AM23 °FIce fog.3 mph93%30.28 "Hg3 mi
2:00 AM23 °FIce fog.5 mph93%30.27 "Hg3 mi
Weather by CustomWeather, © 2014

See weather overviewHow to use our weather pages